TimeAST,TemperatureF,Dew PointF,Humidity,Sea Level PressureIn,VisibilityMPH,Wind Direction,Wind SpeedMPH,Gust SpeedMPH,PrecipitationIn,Events,Conditions,WindDirDegrees,DateUTC
12:00 AM,80.6,73.4,79,30.01,6.2,ESE,5.8,-,N/A,,Partly Cloudy,110,2013-12-04 04:00:00
1:00 AM,80.6,75.2,84,30.01,6.2,ESE,5.8,-,N/A,,Partly Cloudy,120,2013-12-04 05:00:00
2:00 AM,80,73,74,29.99,19,East,5.8,,,,Scattered Clouds,100,2013-12-04 06:00:00
2:00 AM,80.6,73.4,79,29.98,6.2,East,5.8,-,N/A,,Partly Cloudy,100,2013-12-04 06:00:00
3:00 AM,78.8,73.4,83,29.98,5.0,East,4.6,-,N/A,Rain,Rain Showers,90,2013-12-04 07:00:00
4:00 AM,78.8,73.4,83,29.98,6.2,East,3.5,-,N/A,,Scattered Clouds,80,2013-12-04 08:00:00
5:00 AM,78,73,80,29.98,19,ENE,4.6,,,Rain,Light Rain Showers,70,2013-12-04 09:00:00
5:00 AM,77.0,73.4,89,29.98,6.2,ENE,4.6,-,N/A,,Scattered Clouds,70,2013-12-04 09:00:00
6:00 AM,78.8,73.4,83,29.98,6.2,ESE,6.9,-,N/A,,Mostly Cloudy,110,2013-12-04 10:00:00
7:00 AM,78.8,71.6,78,30.01,6.2,East,6.9,-,N/A,,Scattered Clouds,100,2013-12-04 11:00:00
8:00 AM,81,72,68,30.03,22,East,4.6,,,,Partly Cloudy,90,2013-12-04 12:00:00
8:00 AM,80.6,71.6,74,30.01,6.2,East,4.6,-,N/A,,Partly Cloudy,90,2013-12-04 12:00:00
9:00 AM,82.4,73.4,74,30.04,6.2,ESE,6.9,-,N/A,,Mostly Cloudy,120,2013-12-04 13:00:00
10:00 AM,82.4,73.4,74,30.04,6.2,SE,6.9,-,N/A,,Scattered Clouds,130,2013-12-04 14:00:00
11:00 AM,84,73,63,30.05,28,SE,9.2,,,,Partly Cloudy,130,2013-12-04 15:00:00
11:00 AM,84.2,73.4,70,30.04,6.2,SE,9.2,-,N/A,,Scattered Clouds,130,2013-12-04 15:00:00
12:00 PM,82.4,73.4,74,30.01,6.2,SE,10.4,-,N/A,,Scattered Clouds,130,2013-12-04 16:00:00
1:00 PM,86.0,69.8,58,29.98,6.2,East,8.1,-,N/A,,Partly Cloudy,100,2013-12-04 17:00:00
2:00 PM,83,71,58,29.99,19,East,9.2,,,,Scattered Clouds,90,2013-12-04 18:00:00
2:00 PM,82.4,69.8,66,29.98,6.2,East,9.2,-,N/A,,Partly Cloudy,90,2013-12-04 18:00:00
3:00 PM,78.8,69.8,74,29.98,6.2,NNE,8.1,-,N/A,Rain,Light Rain Showers,30,2013-12-04 19:00:00
4:00 PM,80.6,71.6,74,29.98,6.2,North,4.6,-,N/A,,Scattered Clouds,360,2013-12-04 20:00:00
5:00 PM,81,72,67,29.98,28,East,5.8,,,,Scattered Clouds,90,2013-12-04 21:00:00
5:00 PM,80.6,71.6,74,29.98,6.2,Variable,3.5,-,N/A,,Partly Cloudy,0,2013-12-04 21:00:00
6:00 PM,80.6,71.6,74,29.98,6.2,ENE,4.6,-,N/A,,Partly Cloudy,60,2013-12-04 22:00:00
7:00 PM,80.6,71.6,74,29.98,6.2,Variable,3.5,-,N/A,,Partly Cloudy,0,2013-12-04 23:00:00
8:00 PM,80,72,71,30.00,28,East,10.4,,,,Partly Cloudy,80,2013-12-05 00:00:00
8:00 PM,80.6,73.4,79,30.01,6.2,ENE,5.8,-,N/A,,Partly Cloudy,70,2013-12-05 00:00:00
9:00 PM,80.6,71.6,74,30.01,6.2,East,8.1,-,N/A,,Partly Cloudy,80,2013-12-05 01:00:00
10:00 PM,80.6,71.6,74,30.01,6.2,East,9.2,-,N/A,,Scattered Clouds,80,2013-12-05 02:00:00
11:00 PM,80,72,70,30.02,28,ENE,3.5,,,,Partly Cloudy,70,2013-12-05 03:00:00
11:00 PM,80.6,71.6,74,30.01,6.2,ENE,5.8,-,N/A,,Scattered Clouds,70,2013-12-05 03:00:00